Regional Weather Roundup
Issued by NWS Wilmington, NC

Home | Current Version | Previous Version | Text Only | Print | Product List | Glossary On
Versions: 1 2 3 4 5 6 7 8 9 10 11 12 13 14 15 16 17 18 19 20 21 22 23 24 25 26 27 28
000
ASUS42 KILM 171413
RWRILM
RWRILM
REGIONAL HOURLY WEATHER ROUNDUP
NATIONAL WEATHER SERVICE WILMINGTON NC
900 AM EST SUN DEC 17 2017

NOTE: "FAIR" INDICATES FEW OR NO CLOUDS BELOW 12,000 FEET WITH NO
SIGNIFICANT WEATHER AND/OR OBSTRUCTIONS TO VISIBILITY.

...............WFO WILMINGTON COUNTY WARNING AREA...............

......COASTAL NC AND SC COUNTIES......

CITY           SKY/WX    TMP DP  RH WIND       PRES   REMARKS
WILMINGTON     CLOUDY    39  37  92 CALM      30.33R
N MYRTLE BEACH CLOUDY    40  38  93 CALM      30.31S
MYRTLE BEACH   CLOUDY    40  38  93 CALM      30.33S

......INLAND NC AND SC COUNTIES.......

CITY           SKY/WX    TMP DP  RH WIND       PRES   REMARKS
LUMBERTON      MOSUNNY   36  33  89 SE3       30.29F
ELIZABETHTOWN  NOT AVBL
WHITEVILLE     CLOUDY    36  34  91 CALM      30.32R
FLORENCE       CLOUDY    36  33  89 SW3       30.32R
DARLINGTON     CLOUDY    36  33  89 SW7       30.33R WCI  30
KINGSTREE      FAIR      34  32  93 CALM      30.33R
HARTSVILLE     FAIR      36  32  87 CALM      30.31R
BENNETTSVILLE  FAIR      36  36 100 CALM      30.31R
CONWAY         FAIR      34  32  93 CALM      30.32S FOG
GEORGETOWN     FAIR      37  37 100 CALM      30.33R FOG
MARION         FAIR      36  34  93 CALM      30.32F

....................REST OF NORTH CAROLINA......................

.........EASTERN NC.........

CITY           SKY/WX    TMP DP  RH WIND       PRES   REMARKS
CAPE HATTERAS  SUNNY     46  39  76 W5        30.33S
JACKSONVILLE   MOSUNNY   37  34  89 CALM      30.32F
MOREHEAD CITY  SUNNY     46  34  62 CALM      30.33F
KENANSVILLE    CLOUDY    34  30  86 CALM      30.31F FOG
NEW BERN       MOSUNNY   37  34  89 CALM      30.33F
ELIZABETH CITY CLOUDY    40  36  86 SW5       30.31R

.........CENTRAL NC.........

CITY           SKY/WX    TMP DP  RH WIND       PRES   REMARKS
RALEIGH DURHAM PTSUNNY   34  29  82 CALM      30.28S
ROCKY MOUNT    MOSUNNY   35  31  85 CALM      30.29F
ROANOKE RAPIDS NOT AVBL
FAYETTEVILLE   MOSUNNY   34  30  85 CALM      30.29S
HOFFMAN        MOSUNNY   29  27  93 CALM      30.30R

.........WESTERN NC.........

CITY           SKY/WX    TMP DP  RH WIND       PRES   REMARKS
CHARLOTTE      PTSUNNY   36  30  79 S3        30.28R
GREENSBORO     PTSUNNY   33  28  81 CALM      30.24R
HICKORY        NOT AVBL
BOONE          NOT AVBL
ASHEVILLE      NOT AVBL

.....................REST OF SOUTH CAROLINA.....................

.........EASTERN SC.........

CITY           SKY/WX    TMP DP  RH WIND       PRES   REMARKS
CHARLESTON     PTSUNNY   41  40  96 CALM      30.32R FOG
BEAUFORT MCAS  CLOUDY    44  43  96 CALM      30.32R FOG
HILTON HEAD    SUNNY     43  41  93 N6        30.32R

.........CENTRAL SC.........

CITY           SKY/WX    TMP DP  RH WIND       PRES   REMARKS
COLUMBIA       CLOUDY    35  32  88 CALM      30.31R
ORANGEBURG     CLOUDY    35  32  88 CALM      30.33R
SUMTER SHAW    MOSUNNY   35  32  87 CALM      30.29R

.........WESTERN SC.........

CITY           SKY/WX    TMP DP  RH WIND       PRES   REMARKS
GREENVILLE     NOT AVBL
ROCK HILL      MOSUNNY   35  31  85 SW7       30.28S WCI  29
ANDERSON       MOSUNNY   36  30  79 CALM      30.29R
CLEMSON        NOT AVBL
GREENWOOD      MOSUNNY   33  29  85 CALM      30.31R


...................COASTAL AND OFFSHORE REPORTS..................

................LOCAL PIERS AND NC RESERVE................


STATION/POSITION TIME  SKY/WX   TEMP    WIND        PRES    VSBY
                                AIR SEA DIR/SP/G
                 (UTC)          (F)     (DEG/KT/KT) (MB)    (MI)
JOHNY MRCER PIER 1348            44 55  340/  2/  3 1026.8R
NC RESRV MASNBRO 1245            36        CALM     1026.0
OCEAN CREST PIER NOT AVBL
SPRINGMAID  PIER 1348                               1029.7R


................COASTAL AND OFFSHORE BUOYS................


STATION/POSITION TIME  SKY/WX   TEMP    WIND        PRES    VSBY
                                AIR SEA DIR/SP/G
                 (UTC)          (F)     (DEG/KT/KT) (MB)    (MI)
DIMNDSHOAL 41025 1350            52     300/  4/  8 1027.3R
WVE H/P(F/S)=  2/10 SWL H/P/D(F/S/D)=  2/110/10

CAPE LOOKOUT     1400                   350/  3/  3 1027.3F
ONSLOW BAY 41036 NOT AVBL
ONSLOW BAY 41064 1308            53 63  310/  4/  6 1027.0R
ONSLOW BAY 41159 1330               63                N/A
WVE H/P(F/S)=  2/10

MASNBO INL 41110 1329               56                N/A
WVE H/P(F/S)=  1/11

WILM HARBR 41108 1330               57                N/A
WVE H/P(F/S)=  1/11

27SE WRITB 41037 1308            53 62  340/  4/  6 1026.7F
FRYING PAN 41013 1350            55 69   40/  6/  8 1026.7R
WVE H/P(F/S)=  1/ 9 SWL H/P/D(F/S/D)=  2/ 80/ 9

SUNST NRSH 41024 1308            45      20/  2/  4 1026.3R
CAPRS NRSH 41029 1308            46 55   20/  4/  8 1025.9R
EDISTO     41004 1350            58      40/  4/  6 1026.1S
WVE H/P(F/S)=  2/10 SWL H/P/D(F/S/D)=  2/120/10



..........OFFSHORE BUOYS BEYOND 100 NM OFFSHORE...........
.....IN A TRIANGLE---HAT TO BERMUDA TO BAHAMAS TO HAT.....


STATION/POSITION TIME  SKY/WX   TEMP    WIND        PRES    VSBY
                                AIR SEA DIR/SP/G
                 (UTC)          (F)     (DEG/KT/KT) (MB)    (MI)
150E HAT   41001 NOT AVBL
W BERMUDA  41048 1350            66 74  340/  6/ 10 1026.4R
WVE H/P(F/S)=  7/ 9 SWL H/P/D(F/S/D)=  7/330/ 9

ATLANTIC S 41049 1350            74 77   10/ 14/ 17 1023.5R
WVE H/P(F/S)=  7/ 9 SWL H/P/D(F/S/D)=  7/300/ 9

E BAHAMAS  41046 1350            78 80   40/ 10/ 12 1023.1R
WVE H/P(F/S)=  4/ 9 SWL H/P/D(F/S/D)=  3/ 80/ 9

NE BAHAMAS 41047 1350            71      40/  8/ 12 1025.3R
WVE H/P(F/S)=  5/ 8 SWL H/P/D(F/S/D)=  5/350/ 8

120E CANVRL41010 NOT AVBL

END




USA.gov is the U.S. government's official web portal to all federal, state and local government web resources and services.